Location: ??????????
(54.8537°N, 38.8755°E)
Time: 22:22:31
(UTC+00:00)

Vanguard 3 - Pass Details

Date: 22 September 2024
Orbit: 507 x 3224 km, 33.3° (Epoch: 06 October)

Event Time Altitude Azimuth Distance (km) Brightness Sun altitude
Exits shadow 01:14:29 - 201° (SSW) 5,914 11.1 -16.9°
Reaches altitude 10° 01:18:59 10° 189° (S) 5,351 11.0 -16.3°
Maximum altitude 01:30:31 23° 145° (SE) 4,934 11.2 -14.8°
Drops below altitude 10° 01:43:34 10° 103° (ESE) 6,142 12.5 -13.1°
Sets 01:49:43 0° 92° (E) 7,047 13.4 -12.2°
